QPF
0.00 0.00 0.00 0.00 0.00 0.00 0.00 0.00 0.00 0.00 0.00 0.00 0.00 0.00 0.00 0.00 0.00 0.00 0.00 0.00 0.00 0.00 0.00 0.00 0.00 0.00 0.00 0.00 0.00 0.00 0.00 0.00 0.00 0.00 0.00 0.00 0.00 0.00 0.00 0.00 0.00 0.00 0.00 0.00 0.00
0.00 0.00 0.00 0.00 0.00 0.00 0.00 0.00 0.00 0.00 0.00 0.00 0.00 0.00 0.00 0.00 0.00 0.00 0.00 0.00 0.00 0.00 0.00 0.00 0.00 0.00 0.00 0.00 0.00 0.00 0.00 0.00 0.00 0.00 0.00 0.00 0.00 0.00 0.00 0.00 0.00 0.00 0.00 0.00 0.00
0.00 0.00 0.00 0.00 0.00 0.00 0.00 0.00 0.00 0.00 0.00 0.00 0.00 0.00 0.00 0.00 0.00 0.00 0.00 0.00 0.00 0.00 0.00 0.00 0.00 0.00 0.00 0.00 0.00 0.00 0.00 0.00 0.00 0.00 0.00 0.00 0.00 0.00 0.00 0.00 0.00 0.00 0.00 0.00 0.00
0.00 0.00 0.00 0.00 0.00 0.00 0.00 0.00 0.00 0.00 0.00 0.00 0.00 0.00 0.00 0.00 0.00 0.00 0.00 0.00 0.00 0.00 0.00 0.00 0.00 0.00 0.00 0.00 0.00 0.00 0.00 0.00 0.00 0.00 0.00 0.00 0.00 0.00 0.00 0.00 0.00 0.00 0.00 0.00 0.00
0.00 0.00 0.00 0.00 0.00 0.00 0.00 0.00 0.00 0.00 0.00 0.00 0.00 0.00 0.00 0.00 0.00 0.00 0.00 0.00 0.00 0.00 0.00 0.00 0.00 0.00 0.00 0.00 0.00 0.00 0.00 0.00 0.00 0.00 0.00 0.00 0.00 0.00 0.00 0.00 0.00 0.00 0.00 0.00 0.00
0.00 0.00 0.00 0.00 0.00 0.00 0.00 0.00 0.00 0.00 0.00 0.00 0.00 0.00 0.00 0.00 0.00 0.00 0.00 0.00 0.00 0.00 0.00 0.00 0.00 0.00 0.00 0.00 0.00 0.00 0.00 0.00 0.00 0.00 0.00 0.00 0.00 0.00 0.00 0.00 0.00 0.00 0.00 0.00 0.00
0.00 0.00 0.00 0.00 0.00 0.00 0.00 0.00 0.00 0.00 0.00 0.00 0.00 0.00 0.00 0.00 0.00 0.00 0.00 0.00 0.00 0.00 0.00 0.00 0.00 0.00 0.00 0.00 0.00 0.00 0.00 0.00 0.00 0.00 0.00 0.00 0.00 0.00 0.00 0.00 0.00 0.00 0.00 0.00 0.00
0.00 0.00 0.00 0.00 0.00 0.00 0.00 0.00 0.00 0.00 0.00 0.00 0.00 0.00 0.00 0.00 0.00 0.00 0.00 0.00 0.00 0.00 0.00 0.00 0.00 0.00 0.00 0.00 0.00 0.00 0.00 0.00 0.00 0.00 0.00 0.00 0.00 0.00 0.00 0.00 0.00 0.00 0.00 0.00 0.00
0.00 0.00 0.00 0.00 0.00 0.00 0.00 0.00 0.00 0.00 0.00 0.00 0.00 0.00 0.00 0.00 0.00 0.00 0.00 0.00 0.00 0.00 0.00 0.00 0.00 0.00 0.00 0.00 0.00 0.00 0.00 0.00 0.00 0.00 0.00 0.00 0.00 0.00 0.00 0.00 0.00 0.00 0.00 0.00 0.00
0.00 0.00 0.00 0.00 0.00 0.00 0.00 0.00 0.00 0.00 0.00 0.00 0.00 0.00 0.00 0.00 0.00 0.00 0.00 0.00 0.00 0.00 0.00 0.00 0.00 0.00 0.00 0.00 0.00 0.00 0.00 0.00 0.00 0.00 0.00 0.00 0.00 0.00 0.00 0.00 0.00 0.00 0.00 0.00 0.00
0.00 0.00 0.00 0.00 0.00 0.00 0.00 0.00 0.00 0.00 0.00 0.00 0.00 0.00 0.00 0.00 0.00 0.00 0.00 0.00 0.00 0.00 0.00 0.00 0.00 0.00 0.00 0.00 0.00 0.00 0.00 0.00 0.00 0.00 0.00 0.00 0.00 0.00 0.00 0.00 0.00 0.00 0.00 0.00 0.00
0.00 0.00 0.00 0.00 0.00 0.00 0.00 0.00 0.00 0.00 0.00 0.00 0.00 0.00 0.00 0.00 0.00 0.00 0.00 0.00 0.00 0.00 0.00 0.00 0.00 0.00 0.00 0.00 0.00 0.00 0.00 0.00 0.00 0.00 0.00 0.00 0.00 0.00 0.00 0.00 0.00 0.00 0.00 0.00 0.00
0.00 0.00 0.00 0.00 0.00 0.00 0.00 0.00 0.00 0.00 0.00 0.00 0.00 0.00 0.00 0.00 0.00 0.00 0.00 0.00 0.00 0.00 0.00 0.00 0.00 0.00 0.00 0.00 0.00 0.00 0.00 0.00 0.00 0.00 0.00 0.00 0.00 0.00 0.00 0.00 0.00 0.00 0.00 0.00 0.00
0.00 0.00 0.00 0.00 0.00 0.00 0.00 0.00 0.00 0.00 0.00 0.00 0.00 0.00 0.00 0.00 0.00 0.00 0.00 0.00 0.00 0.00 0.00 0.00 0.00 0.00 0.00 0.00 0.00 0.00 0.00 0.00 0.00 0.00 0.00 0.00 0.00 0.00 0.00 0.00 0.00 0.00 0.00 0.00 0.00
0.00 0.00 0.00 0.00 0.00 0.00 0.00 0.00 0.00 0.00 0.00 0.00 0.00 0.00 0.00 0.00 0.00 0.00 0.00 0.00 0.00 0.00 0.00 0.00 0.00 0.00 0.00 0.00 0.00 0.00 0.00 0.00 0.00 0.00 0.00 0.00 0.00 0.00 0.00 0.00 0.00 0.00 0.00 0.00 0.00
0.00 0.00 0.00 0.00 0.00 0.00 0.00 0.00 0.00 0.00 0.00 0.00 0.00 0.00 0.00 0.00 0.00 0.00 0.00 0.00 0.00 0.00 0.00 0.00 0.00 0.00 0.00 0.00 0.00 0.00 0.00 0.00 0.00 0.00 0.00 0.00 0.00 0.00 0.00 0.00 0.00 0.00 0.00 0.00 0.00
0.00 0.00 0.00 0.00 0.00 0.00 0.00 0.00 0.00 0.00 0.00 0.00 0.00 0.00 0.00 0.00 0.00 0.00 0.00 0.00 0.00 0.00 0.00 0.00 0.00 0.00 0.00 0.00 0.00 0.00 0.00 0.00 0.00 0.00 0.00 0.00 0.00 0.00 0.00 0.00 0.00 0.00 0.00 0.00 0.00
0.00 0.00 0.00 0.00 0.00 0.00 0.00 0.00 0.00 0.00 0.00 0.00 0.00 0.00 0.00 0.00 0.00 0.00 0.00 0.00 0.00 0.00 0.00 0.00 0.00 0.00 0.00 0.00 0.00 0.00 0.00 0.00 0.00 0.00 0.00 0.00 0.00 0.00 0.00 0.00 0.00 0.00 0.00 0.00 0.00
0.00 0.00 0.00 0.00 0.00 0.00 0.00 0.00 0.00 0.00 0.00 0.00 0.00 0.00 0.00 0.00 0.00 0.00 0.00 0.00 0.00 0.00 0.00 0.00 0.00 0.00 0.00 0.00 0.00 0.00 0.00 0.00 0.00 0.00 0.00 0.00 0.00 0.00 0.00 0.00 0.00 0.00 0.00 0.00 0.00
0.00 0.00 0.00 0.00 0.00 0.00 0.00 0.00 0.00 0.00 0.00 0.00 0.00 0.00 0.00 0.00 0.00 0.00 0.00 0.00 0.00 0.00 0.00 0.00 0.00 0.00 0.00 0.00 0.00 0.00 0.00 0.00 0.00 0.00 0.00 0.00 0.00 0.00 0.00 0.00 0.00 0.00 0.00 0.00 0.00
0.00 0.00 0.00 0.00 0.00 0.00 0.00 0.00 0.00 0.00 0.00 0.00 0.00 0.00 0.00 0.00 0.00 0.00 0.00 0.00 0.00 0.00 0.00 0.00 0.00 0.00 0.00 0.00 0.00 0.00 0.00 0.00 0.00 0.00 0.00 0.01 0.01 0.02 0.01 0.00 0.00 0.00 0.00 0.00 0.00
0.00 0.00 0.00 0.00 0.00 0.00 0.00 0.00 0.00 0.00 0.00 0.00 0.00 0.00 0.00 0.00 0.00 0.00 0.00 0.00 0.00 0.00 0.00 0.00 0.00 0.00 0.00 0.00 0.00 0.00 0.00 0.00 0.00 0.00 0.00 0.01 0.01 0.03 0.00 0.00 0.00 0.01 0.00 0.00 0.00
0.00 0.00 0.00 0.00 0.00 0.00 0.00 0.00 0.00 0.00 0.00 0.00 0.00 0.00 0.00 0.00 0.00 0.00 0.00 0.00 0.00 0.00 0.00 0.00 0.00 0.00 0.00 0.00 0.00 0.00 0.00 0.00 0.01 0.01 0.00 0.00 0.00 0.01 0.00 0.00 0.01 0.01 0.00 0.00 0.00
0.00 0.00 0.00 0.00 0.00 0.00 0.00 0.00 0.00 0.00 0.00 0.00 0.00 0.00 0.00 0.00 0.00 0.00 0.00 0.00 0.00 0.00 0.00 0.00 0.00 0.00 0.00 0.00 0.00 0.00 0.00 0.00 0.00 0.00 0.00 0.00 0.00 0.00 0.01 0.01 0.01 0.01 0.00 0.00 0.00
0.00 0.00 0.00 0.00 0.00 0.00 0.00 0.00 0.00 0.00 0.00 0.00 0.00 0.00 0.00 0.00 0.00 0.00 0.00 0.00 0.00 0.00 0.00 0.00 0.00 0.00 0.00 0.00 0.00 0.00 0.00 0.00 0.00 0.00 0.00 0.01 0.01 0.00 0.00 0.02 0.01 0.00 0.00 0.00 0.00
0.00 0.00 0.00 0.00 0.00 0.00 0.00 0.00 0.00 0.00 0.00 0.00 0.00 0.00 0.00 0.00 0.00 0.00 0.00 0.00 0.00 0.00 0.00 0.00 0.00 0.00 0.00 0.00 0.00 0.00 0.00 0.00 0.00 0.00 0.00 0.01 0.01 0.00 0.00 0.00 0.00 0.00 0.00 0.00 0.00
0.00 0.00 0.00 0.00 0.00 0.00 0.00 0.00 0.00 0.00 0.00 0.00 0.00 0.00 0.00 0.00 0.00 0.00 0.00 0.00 0.00 0.00 0.00 0.00 0.00 0.00 0.00 0.00 0.00 0.00 0.00 0.00 0.00 0.00 0.00 0.00 0.00 0.00 0.00 0.01 0.00 0.00 0.00 0.00 0.00
MSLP
1018.65 1018.72 1018.75 1018.73 1018.63 1018.60 1018.41 1018.23 1018.07 1017.82 1017.42 1016.92 1016.58 1016.30 1015.94 1015.50 1014.65 1014.25 1013.76 1012.36 1012.23 1012.07 1012.03 1012.05 1012.01 1012.09 1012.37 1012.89 1013.29 1013.98 1015.09 1015.39 1014.39 1013.59 1011.97 1010.74 1010.42 1009.76 1009.31 1009.31 1008.99 1008.60 1008.58 1007.86 1007.78
1018.43 1018.41 1018.50 1018.57 1018.58 1018.56 1018.36 1018.09 1017.98 1017.75 1017.40 1016.96 1016.50 1015.93 1015.64 1015.38 1014.95 1013.71 1012.17 1012.09 1012.13 1012.16 1012.00 1012.13 1012.24 1012.28 1012.76 1013.11 1013.51 1013.95 1014.75 1014.40 1013.50 1012.53 1011.83 1010.83 1010.69 1010.13 1009.88 1009.53 1008.94 1008.53 1008.26 1007.95 1007.88
1018.32 1018.39 1018.34 1018.52 1018.44 1018.50 1018.33 1018.09 1017.73 1017.57 1017.33 1016.92 1016.50 1015.89 1015.36 1015.25 1014.77 1012.75 1012.00 1012.07 1012.17 1012.15 1012.16 1012.07 1012.17 1012.49 1012.97 1013.21 1013.42 1013.72 1013.87 1013.49 1012.86 1012.22 1011.87 1011.47 1010.32 1010.17 1009.78 1009.54 1009.28 1008.77 1008.11 1007.74 1007.77
1018.11 1018.29 1018.35 1018.53 1018.24 1018.44 1018.39 1018.07 1017.72 1017.39 1017.19 1016.79 1016.37 1015.81 1015.17 1015.01 1014.13 1012.19 1011.87 1011.93 1012.13 1012.25 1012.26 1012.21 1012.33 1012.65 1013.09 1013.32 1013.20 1013.60 1013.17 1012.91 1012.53 1012.00 1011.80 1011.45 1010.74 1009.78 1009.75 1009.29 1008.81 1008.43 1008.08 1007.81 1007.83
1018.10 1018.22 1018.31 1018.39 1018.14 1018.14 1018.25 1018.07 1017.77 1017.42 1017.13 1016.85 1016.20 1015.73 1015.21 1014.74 1013.01 1012.04 1011.79 1011.87 1012.02 1012.30 1012.48 1012.44 1012.50 1012.70 1012.96 1013.15 1013.16 1013.16 1013.00 1012.68 1012.27 1012.03 1011.54 1011.01 1010.69 1010.18 1009.11 1008.85 1008.39 1008.21 1008.00 1007.68 1007.33
1017.84 1017.94 1018.23 1018.37 1018.15 1018.05 1017.92 1017.80 1017.70 1017.24 1017.03 1016.84 1016.19 1015.92 1015.42 1014.14 1011.93 1011.95 1011.95 1011.78 1011.91 1012.10 1012.24 1012.49 1012.57 1012.65 1012.91 1013.10 1013.39 1013.00 1012.88 1012.62 1012.14 1011.70 1011.04 1010.67 1010.00 1009.92 1009.10 1008.06 1008.29 1008.02 1007.73 1007.44 1007.11
1017.56 1017.94 1017.75 1018.21 1018.00 1017.91 1017.81 1017.48 1017.32 1017.01 1016.74 1016.70 1016.40 1015.92 1015.26 1012.91 1011.78 1011.78 1011.76 1011.58 1011.57 1011.79 1011.97 1012.03 1012.34 1012.75 1013.09 1013.22 1013.06 1013.18 1013.06 1012.53 1011.97 1011.33 1010.83 1010.17 1009.94 1009.39 1008.54 1008.47 1008.38 1008.24 1007.84 1007.40 1007.22
1017.25 1017.36 1017.54 1017.90 1017.84 1017.79 1017.82 1017.26 1017.02 1016.57 1016.30 1016.40 1016.20 1016.14 1014.51 1012.10 1011.94 1011.72 1011.54 1011.40 1011.18 1011.49 1011.88 1011.82 1012.28 1012.89 1013.23 1013.32 1013.33 1013.65 1013.72 1013.33 1012.12 1011.66 1010.72 1010.59 1009.45 1009.08 1008.68 1009.07 1008.81 1008.30 1008.01 1007.44 1006.93
1016.86 1017.23 1017.32 1017.55 1017.68 1017.66 1017.50 1017.08 1016.55 1015.92 1016.06 1016.24 1016.26 1015.73 1013.72 1011.93 1012.03 1011.24 1011.28 1011.44 1011.44 1011.42 1011.68 1011.81 1012.23 1013.31 1013.89 1014.37 1014.69 1014.59 1014.81 1014.23 1013.20 1011.93 1011.56 1011.15 1010.13 1009.36 1008.79 1009.12 1009.24 1008.92 1008.26 1007.72 1007.12
1016.53 1016.73 1017.15 1017.26 1017.79 1017.63 1017.22 1016.53 1016.24 1015.98 1016.07 1016.46 1015.90 1015.86 1013.46 1012.20 1011.75 1011.33 1011.12 1011.36 1011.55 1011.78 1012.34 1012.74 1013.22 1013.77 1014.82 1015.49 1015.70 1015.59 1015.44 1014.87 1014.33 1012.96 1012.02 1011.47 1009.30 1010.22 1010.23 1009.89 1009.46 1009.19 1008.47 1007.81 1007.29
1016.09 1016.38 1016.97 1016.85 1017.50 1018.02 1017.36 1016.51 1016.60 1016.43 1016.17 1015.63 1015.06 1014.08 1013.15 1012.39 1011.86 1011.51 1011.18 1011.40 1011.84 1012.52 1013.62 1013.86 1014.52 1014.88 1015.44 1015.51 1015.53 1015.74 1015.63 1015.41 1014.42 1013.28 1012.91 1011.80 1009.77 1010.17 1010.07 1009.83 1009.80 1009.33 1008.69 1008.02 1007.13
1015.56 1016.21 1016.71 1017.06 1017.19 1017.41 1017.83 1017.14 1016.26 1016.38 1015.94 1014.35 1014.54 1013.89 1013.04 1012.70 1012.29 1011.98 1011.38 1012.10 1012.54 1013.49 1014.12 1014.86 1015.04 1015.19 1015.31 1015.37 1015.50 1015.59 1015.78 1015.60 1014.65 1013.89 1013.48 1012.41 1009.53 1009.14 1009.94 1009.51 1009.16 1009.13 1008.89 1008.16 1007.33
1015.45 1016.31 1016.60 1016.72 1017.14 1016.99 1016.90 1016.66 1016.42 1016.34 1016.11 1014.19 1013.64 1013.22 1012.58 1012.50 1012.24 1012.21 1011.96 1012.46 1013.27 1013.91 1014.56 1015.36 1015.42 1015.10 1015.42 1015.70 1015.77 1015.91 1016.30 1016.13 1015.92 1014.77 1014.25 1013.27 1010.20 1009.33 1009.77 1009.46 1009.23 1009.05 1008.58 1008.41 1007.97
1015.40 1016.29 1016.68 1016.87 1017.10 1016.68 1016.34 1016.06 1016.18 1016.23 1015.93 1013.93 1012.95 1012.14 1012.09 1012.25 1012.47 1012.27 1012.35 1012.87 1013.69 1014.50 1014.84 1015.57 1015.64 1015.50 1015.77 1016.23 1016.42 1016.53 1016.57 1016.39 1016.03 1015.84 1015.54 1014.48 1012.83 1009.10 1010.12 1010.27 1010.56 1010.68 1010.47 1009.70 1008.85
1015.10 1016.14 1016.45 1016.63 1016.93 1016.42 1016.38 1016.22 1016.04 1016.23 1015.61 1013.25 1012.46 1011.72 1012.10 1012.95 1013.06 1013.02 1012.95 1013.06 1014.13 1014.74 1015.72 1015.94 1015.62 1015.88 1016.40 1016.78 1016.80 1017.02 1016.69 1016.77 1016.48 1016.43 1015.98 1015.44 1015.36 1009.80 1011.13 1011.89 1012.12 1011.94 1011.28 1010.48 1009.57
1014.81 1015.82 1016.48 1016.55 1016.97 1016.04 1016.19 1016.21 1016.23 1016.14 1014.40 1013.16 1012.38 1012.25 1012.95 1013.62 1013.97 1013.89 1014.15 1014.26 1015.09 1015.39 1016.14 1016.56 1016.00 1016.60 1016.92 1016.84 1017.25 1017.28 1016.96 1016.62 1016.51 1016.90 1016.80 1016.46 1016.31 1013.39 1013.40 1013.41 1012.95 1012.52 1011.82 1011.26 1010.25
1014.61 1015.56 1016.25 1016.03 1016.39 1015.87 1015.87 1016.64 1016.56 1015.28 1013.52 1013.37 1013.27 1013.33 1013.97 1014.58 1015.20 1015.29 1016.27 1016.71 1017.07 1017.09 1017.25 1017.23 1016.92 1017.03 1017.26 1017.19 1017.39 1017.90 1017.76 1018.06 1017.60 1017.84 1017.22 1016.63 1016.27 1014.66 1013.91 1013.42 1013.25 1012.35 1011.84 1011.25 1010.50
1014.46 1015.16 1015.66 1015.71 1016.07 1015.75 1016.07 1016.63 1015.74 1014.15 1013.91 1013.68 1013.98 1014.43 1015.12 1015.78 1016.43 1016.82 1017.30 1018.11 1018.32 1018.36 1018.59 1018.31 1017.78 1017.65 1017.73 1017.93 1018.52 1018.76 1019.28 1019.95 1019.82 1019.29 1018.61 1017.82 1016.54 1014.62 1014.02 1013.31 1012.96 1012.36 1011.89 1011.35 1010.32
1014.38 1015.39 1015.82 1015.32 1015.75 1015.77 1016.32 1016.48 1014.54 1013.98 1013.84 1014.04 1014.56 1015.15 1016.25 1016.78 1017.24 1017.84 1018.38 1018.92 1019.39 1019.38 1019.35 1019.12 1018.69 1018.05 1018.02 1017.96 1018.65 1019.17 1019.53 1020.13 1020.71 1020.18 1019.75 1017.62 1016.08 1014.76 1013.88 1013.13 1012.84 1012.50 1012.19 1011.52 1010.61
1014.30 1015.39 1015.40 1015.10 1015.60 1015.91 1016.58 1015.70 1014.73 1013.98 1014.03 1014.18 1014.75 1015.83 1017.00 1017.46 1018.02 1018.40 1018.92 1019.34 1019.69 1019.85 1019.59 1019.67 1019.81 1019.02 1018.57 1018.76 1019.04 1019.41 1020.03 1020.66 1021.45 1021.22 1020.11 1017.88 1016.88 1016.12 1014.52 1013.81 1013.54 1013.20 1012.85 1011.86 1011.27
1013.96 1015.15 1015.19 1015.41 1015.49 1016.35 1016.11 1015.40 1014.63 1014.29 1014.22 1014.56 1015.08 1016.47 1017.37 1017.67 1018.40 1018.91 1019.32 1019.88 1019.91 1019.94 1019.65 1019.91 1020.16 1020.06 1019.67 1019.48 1019.45 1020.06 1020.55 1020.98 1021.61 1021.21 1020.51 1018.91 1017.06 1015.73 1015.25 1015.00 1014.64 1013.94 1013.20 1012.19 1012.57
1013.51 1014.78 1015.29 1015.37 1016.01 1016.28 1015.69 1014.69 1014.30 1014.47 1014.45 1014.90 1015.32 1016.36 1017.36 1017.82 1018.51 1018.81 1019.22 1019.64 1019.97 1019.99 1019.99 1020.19 1020.68 1020.76 1020.35 1019.79 1019.58 1020.00 1020.61 1020.92 1021.57 1021.26 1020.79 1019.78 1017.23 1015.91 1015.81 1015.43 1015.07 1014.53 1014.21 1013.84 1013.83
1013.42 1014.86 1015.46 1015.34 1015.94 1016.07 1015.15 1014.68 1014.17 1014.50 1014.76 1015.28 1015.79 1016.30 1017.40 1018.15 1018.85 1019.35 1019.44 1019.63 1019.92 1019.90 1019.80 1020.17 1021.14 1021.36 1020.72 1020.39 1019.96 1020.11 1020.33 1020.84 1021.30 1021.17 1020.43 1019.83 1017.38 1016.35 1016.05 1015.85 1015.67 1015.20 1015.08 1015.08 1014.90
1012.80 1015.12 1015.80 1015.77 1015.59 1014.98 1014.64 1014.64 1014.72 1014.88 1015.25 1015.63 1016.14 1016.58 1017.75 1018.59 1018.87 1019.46 1019.63 1019.82 1020.12 1019.81 1019.96 1020.42 1021.33 1021.43 1021.20 1020.53 1020.59 1020.52 1020.58 1020.95 1021.09 1020.82 1019.86 1019.20 1017.76 1017.08 1016.93 1016.75 1016.37 1015.88 1015.60 1015.58 1015.45
1011.69 1013.04 1013.11 1014.57 1014.92 1014.60 1014.18 1014.45 1014.64 1015.21 1015.53 1015.79 1016.70 1017.13 1017.51 1018.78 1019.18 1019.28 1019.97 1020.21 1020.13 1020.14 1020.50 1021.12 1021.68 1021.37 1020.69 1020.54 1020.56 1020.65 1020.82 1020.84 1020.77 1020.44 1020.06 1019.15 1018.57 1018.29 1017.87 1017.58 1017.06 1016.96 1016.53 1016.72 1016.30
1011.11 1011.57 1012.53 1012.77 1013.70 1014.09 1014.12 1014.70 1014.56 1015.05 1015.46 1016.17 1016.80 1017.28 1017.73 1018.18 1018.53 1019.56 1020.05 1020.21 1020.40 1020.79 1021.11 1021.68 1021.84 1021.52 1020.87 1020.19 1020.21 1020.56 1020.81 1020.68 1020.52 1020.47 1020.03 1019.55 1018.94 1018.70 1018.44 1017.96 1017.72 1017.78 1017.74 1017.90 1017.90
1010.37 1010.39 1010.73 1013.35 1013.60 1013.84 1013.84 1014.12 1014.52 1014.91 1015.84 1016.07 1016.84 1017.43 1017.68 1018.13 1018.63 1019.30 1019.61 1020.03 1020.51 1020.96 1021.70 1022.19 1022.29 1022.08 1021.20 1020.68 1020.57 1020.89 1020.93 1020.91 1020.83 1020.94 1020.84 1020.10 1020.01 1019.44 1019.02 1018.72 1018.90 1018.97 1019.13 1019.16 1018.83
Thickness
5636 5637 5636 5636 5638 5638 5641 5642 5644 5647 5650 5654 5657 5660 5664 5667 5674 5680 5684 5695 5696 5699 5699 5699 5699 5697 5694 5690 5688 5679 5655 5651 5671 5674 5689 5708 5702 5716 5721 5713 5716 5723 5718 5733 5738
5630 5631 5632 5631 5633 5633 5635 5638 5639 5641 5644 5648 5652 5657 5660 5663 5664 5673 5689 5690 5689 5689 5691 5687 5685 5687 5678 5680 5675 5669 5645 5656 5672 5683 5685 5697 5696 5701 5702 5702 5711 5714 5718 5724 5730
5623 5624 5625 5624 5626 5627 5629 5632 5636 5637 5639 5642 5646 5651 5656 5657 5662 5675 5682 5682 5681 5681 5682 5683 5681 5678 5670 5671 5669 5664 5655 5665 5674 5679 5680 5681 5693 5697 5695 5690 5699 5701 5714 5715 5720
5616 5617 5617 5617 5620 5618 5621 5625 5628 5632 5634 5637 5640 5644 5650 5652 5653 5674 5676 5675 5673 5673 5673 5672 5669 5662 5658 5657 5664 5656 5662 5667 5669 5676 5672 5671 5682 5690 5685 5690 5703 5706 5710 5710 5708
5610 5610 5610 5610 5613 5612 5612 5615 5619 5624 5628 5630 5635 5638 5643 5645 5654 5668 5670 5669 5668 5665 5660 5659 5656 5653 5650 5652 5653 5651 5657 5661 5662 5662 5665 5670 5669 5674 5684 5691 5697 5699 5702 5703 5704
5601 5603 5601 5601 5604 5604 5606 5608 5610 5616 5620 5622 5628 5630 5635 5638 5663 5660 5661 5663 5662 5659 5655 5651 5648 5649 5645 5645 5641 5649 5648 5648 5653 5658 5662 5663 5670 5666 5680 5691 5687 5690 5694 5696 5699
5594 5593 5594 5591 5595 5597 5599 5603 5606 5610 5614 5616 5619 5623 5626 5640 5656 5657 5656 5655 5657 5654 5648 5650 5645 5640 5638 5635 5642 5639 5633 5639 5646 5651 5651 5662 5657 5660 5674 5675 5675 5678 5683 5689 5691
5587 5588 5587 5585 5587 5589 5590 5596 5600 5605 5609 5610 5612 5611 5621 5646 5647 5650 5651 5649 5651 5648 5643 5644 5639 5631 5628 5631 5626 5623 5621 5617 5635 5637 5648 5650 5651 5663 5669 5660 5661 5667 5671 5678 5685
5577 5577 5578 5578 5578 5578 5581 5588 5595 5602 5602 5602 5603 5608 5617 5638 5635 5645 5645 5640 5640 5641 5636 5636 5630 5616 5611 5599 5594 5598 5597 5603 5610 5626 5629 5633 5633 5650 5657 5652 5647 5651 5656 5663 5671
5568 5569 5570 5571 5566 5567 5572 5581 5585 5591 5593 5590 5597 5598 5617 5623 5628 5632 5636 5632 5628 5627 5620 5615 5605 5598 5584 5577 5575 5583 5583 5588 5587 5604 5613 5612 5642 5631 5629 5629 5633 5637 5642 5650 5655
5561 5562 5559 5564 5560 5555 5562 5572 5577 5580 5580 5589 5596 5603 5610 5614 5619 5620 5624 5621 5615 5604 5590 5592 5584 5579 5579 5580 5582 5576 5575 5572 5579 5590 5593 5600 5627 5625 5618 5616 5613 5620 5630 5635 5645
5556 5553 5552 5551 5552 5552 5550 5561 5570 5571 5571 5588 5585 5590 5599 5602 5599 5604 5613 5601 5597 5582 5581 5568 5567 5574 5574 5576 5571 5570 5566 5562 5572 5579 5580 5584 5621 5629 5611 5611 5613 5612 5615 5619 5628
5546 5541 5542 5544 5542 5546 5548 5554 5558 5562 5559 5579 5583 5586 5591 5593 5592 5591 5598 5590 5581 5575 5571 5559 5562 5566 5562 5556 5554 5554 5552 5549 5547 5559 5561 5565 5599 5613 5610 5607 5605 5605 5607 5606 5608
5537 5533 5530 5533 5537 5539 5545 5549 5549 5551 5545 5576 5580 5583 5587 5586 5580 5588 5587 5580 5570 5561 5561 5550 5552 5552 5547 5543 5541 5542 5537 5539 5541 5534 5529 5552 5547 5615 5598 5585 5580 5575 5574 5582 5590
5528 5524 5525 5526 5525 5534 5535 5536 5540 5539 5541 5570 5572 5583 5577 5568 5568 5571 5572 5570 5558 5555 5545 5542 5541 5536 5523 5527 5530 5527 5525 5525 5529 5518 5523 5535 5499 5597 5576 5544 5547 5550 5558 5565 5570
5517 5513 5513 5516 5515 5526 5526 5525 5529 5534 5541 5555 5563 5562 5557 5553 5553 5555 5551 5551 5546 5541 5534 5531 5531 5525 5524 5522 5515 5515 5513 5514 5516 5502 5498 5509 5485 5522 5526 5522 5527 5531 5539 5541 5547
5506 5503 5503 5509 5509 5516 5519 5512 5514 5513 5556 5549 5548 5548 5542 5536 5535 5535 5520 5511 5507 5517 5505 5509 5510 5511 5511 5505 5501 5494 5488 5477 5482 5489 5498 5499 5483 5496 5510 5510 5504 5515 5519 5523 5531
5495 5494 5495 5499 5499 5506 5504 5500 5510 5540 5540 5540 5536 5530 5525 5524 5516 5513 5507 5491 5495 5496 5482 5487 5494 5494 5498 5495 5483 5471 5468 5441 5435 5458 5458 5476 5462 5492 5487 5491 5491 5496 5498 5499 5510
5483 5480 5482 5491 5491 5494 5487 5483 5510 5527 5533 5527 5525 5517 5509 5508 5503 5494 5486 5480 5480 5479 5479 5470 5474 5486 5487 5487 5476 5465 5453 5452 5424 5439 5426 5459 5464 5474 5474 5479 5473 5472 5475 5478 5491
5468 5468 5472 5479 5479 5479 5469 5497 5503 5519 5519 5520 5516 5507 5487 5489 5486 5485 5477 5479 5475 5474 5471 5464 5455 5470 5472 5467 5458 5452 5443 5420 5397 5371 5392 5408 5431 5424 5454 5462 5459 5463 5461 5473 5475
5459 5457 5462 5464 5467 5459 5454 5475 5499 5505 5507 5503 5498 5484 5479 5479 5477 5474 5468 5467 5468 5464 5463 5455 5450 5446 5450 5446 5436 5424 5417 5411 5402 5395 5405 5419 5425 5440 5448 5444 5443 5452 5458 5470 5461
5449 5443 5448 5453 5445 5448 5458 5480 5498 5494 5496 5492 5488 5482 5475 5473 5470 5467 5464 5459 5459 5456 5449 5445 5431 5419 5426 5430 5431 5426 5407 5392 5373 5394 5397 5403 5421 5442 5437 5442 5444 5445 5445 5448 5445
5437 5434 5437 5444 5426 5426 5464 5474 5485 5484 5485 5482 5478 5479 5472 5463 5454 5455 5454 5453 5447 5447 5444 5440 5417 5389 5421 5417 5425 5419 5419 5416 5402 5395 5394 5392 5428 5436 5436 5437 5434 5433 5434 5429 5430
5431 5418 5422 5432 5434 5447 5460 5465 5465 5470 5470 5468 5466 5467 5456 5452 5449 5443 5446 5447 5437 5440 5444 5432 5414 5410 5395 5411 5401 5403 5406 5403 5402 5397 5411 5408 5422 5427 5421 5421 5420 5428 5428 5426 5426
5431 5429 5439 5428 5426 5445 5455 5460 5458 5456 5459 5460 5455 5456 5452 5442 5441 5440 5436 5431 5433 5436 5424 5414 5394 5401 5407 5406 5404 5401 5398 5392 5394 5403 5402 5414 5412 5404 5408 5409 5414 5413 5417 5410 5413
5431 5430 5436 5445 5441 5443 5449 5445 5453 5451 5451 5450 5445 5447 5445 5441 5435 5427 5427 5423 5423 5417 5412 5397 5376 5383 5396 5409 5403 5401 5392 5391 5400 5396 5394 5401 5404 5400 5403 5409 5405 5403 5404 5397 5395
5431 5440 5446 5425 5427 5431 5435 5445 5447 5444 5446 5447 5439 5432 5438 5438 5434 5431 5425 5419 5417 5411 5395 5390 5389 5394 5403 5408 5406 5397 5389 5387 5392 5379 5378 5389 5385 5390 5391 5395 5388 5387 5387 5386 5387